FW7487 Weather Reports


Display with metric or nautical units.
time (UTC)temp
F
wind
direction
speed
MPH
gust
MPH
rain 1hr
in
rain 24hr
in
rain mn
in
humidity
%
barometer
mb
20260831050110 75 0 0.0 0.0 0.00 0.00 0.00 91 1020.8
20260831044551 75 0 0.0 0.0 0.00 0.00 0.00 91 1020.7
20260831043052 75 0 0.0 1.0 0.00 0.00 0.00 90 1020.5
20260831041612 76 0 0.0 0.0 0.00 0.00 0.00 89 1020.4
20260831034601 76 0 0.0 1.0 0.00 0.00 0.00 90 1020.7
20260831033112 76 0 0.0 0.0 0.00 0.00 0.00 90 1020.6
20260831031554 76 0 0.0 0.0 0.00 0.00 0.00 90 1020.7
20260831030051 76 0 0.0 0.0 0.00 0.00 0.00 89 1020.7
20260831024605 76 0 0.0 0.0 0.00 0.00 0.00 89 1020.5
20260831023100 77 0 0.0 0.0 0.00 0.00 0.00 88 1020.4
20260831021552 78 0 0.0 0.0 0.00 0.00 0.00 86 1020.5
20260831014604 79 0 0.0 0.0 0.00 0.00 0.00 84 1020.5
20260831013058 79 0 0.0 0.0 0.00 0.00 0.00 84 1020.4
20260831011553 80 0 0.0 1.0 0.00 0.00 0.00 84 1020.4
20260831010113 80 0 0.0 0.0 0.00 0.00 0.00 85 1020.3
20260831004607 81 0 0.0 0.0 0.00 0.00 0.00 84 1020.0
20260831003108 81 0 0.0 0.0 0.00 0.00 0.00 82 1019.9
20260831001604 82 0 0.0 0.0 0.00 0.00 0.00 81 1019.7
20260831000104 83 0 0.0 0.0 0.00 0.00 0.00 77 1019.6
20260830234606 84 0 0.0 3.0 0.00 0.00 0.00 74 1019.6
20260830233103 84 175 1.0 4.0 0.00 0.00 0.00 74 1019.6
20260830231624 85 159 0.0 4.0 0.00 0.00 0.00 72 1019.5
20260830224607 87 192 1.0 6.0 0.00 0.00 0.00 68 1019.2
20260830223103 87 104 2.0 5.0 0.00 0.00 0.00 66 1019.3
20260830221601 89 166 2.0 7.0 0.00 0.00 0.00 63 1019.3
20260830214601 88 0 2.0 9.0 0.00 0.00 0.00 67 1019.6
20260830213055 88 98 1.0 8.0 0.00 0.00 0.00 68 1019.7
20260830211552 86 160 2.0 8.0 0.00 0.00 0.00 69 1019.7
20260830210134 87 11 1.0 6.0 0.00 0.00 0.00 69 1019.8
20260830204611 84 134 2.0 6.0 0.00 0.00 0.00 74 1020.0
20260830203057 85 185 1.0 6.0 0.00 0.00 0.00 71 1020.0
20260830201556 87 115 2.0 7.0 0.00 0.00 0.00 68 1020.2
20260830200115 85 171 3.0 9.0 0.00 0.00 0.00 71 1020.3
20260830194643 90 157 2.0 12.0 0.00 0.00 0.00 63 1020.4
20260830193053 89 165 1.0 6.0 0.00 0.00 0.00 62 1020.6
20260830191608 87 171 2.0 6.0 0.00 0.00 0.00 66 1020.8
20260830184555 83 163 1.0 6.0 0.00 0.00 0.00 80 1021.0
20260830183118 84 80 2.0 8.0 0.00 0.00 0.00 74 1021.2
20260830181602 86 24 1.0 5.0 0.00 0.00 0.00 70 1021.4
20260830180108 86 0 0.0 4.0 0.00 0.00 0.00 72 1021.6
20260830174610 88 147 1.0 6.0 0.00 0.00 0.00 67 1021.8
20260830173127 86 0 1.0 4.0 0.00 0.00 0.00 70 1021.9
20260830171553 86 46 2.0 8.0 0.00 0.00 0.00 69 1022.2
20260830170106 86 142 2.0 7.0 0.00 0.00 0.00 72 1022.5
20260830164600 86 19 2.0 6.0 0.00 0.00 0.00 73 1022.6
20260830163057 87 144 2.0 7.0 0.00 0.00 0.00 70 1022.7
20260830161626 85 54 2.0 7.0 0.00 0.00 0.00 72 1022.9
20260830154553 84 94 2.0 9.0 0.00 0.00 0.00 74 1022.9
20260830153053 82 130 1.0 5.0 0.00 0.00 0.00 78 1023.0
20260830151600 82 132 2.0 7.0 0.00 0.00 0.00 80 1023.1
20260830150116 82 43 3.0 8.0 0.00 0.00 0.00 81 1023.0
20260830144557 80 0 1.0 7.0 0.00 0.00 0.00 86 1022.9
20260830143052 78 90 2.0 7.0 0.00 0.00 0.00 89 1023.0
20260830141602 78 54 2.0 6.0 0.00 0.00 0.00 92 1022.9
20260830134556 74 124 0.0 6.0 0.00 0.00 0.00 96 1023.1
20260830133053 74 42 0.0 4.0 0.00 0.00 0.00 96 1023.1
20260830131604 74 119 1.0 5.0 0.00 0.00 0.00 96 1022.9
20260830124558 73 0 0.0 4.0 0.00 0.00 0.00 97 1022.8
20260830123051 73 360 1.0 4.0 0.00 0.00 0.00 97 1022.7
20260830121601 72 0 0.0 3.0 0.00 0.00 0.00 97 1022.6
20260830120049 72 360 1.0 3.0 0.00 0.00 0.00 96 1022.4
20260830114602 71 0 1.0 3.0 0.00 0.00 0.00 97 1022.2
20260830113054 71 360 0.0 4.0 0.00 0.00 0.00 96 1022.0
20260830111603 71 0 0.0 1.0 0.00 0.00 0.00 96 1022.0
20260830104606 71 0 0.0 3.0 0.00 0.00 0.00 96 1021.3
20260830103056 72 0 0.0 2.0 0.00 0.00 0.00 96 1021.2
20260830101602 72 0 0.0 3.0 0.00 0.00 0.00 96 1021.0
20260830100106 72 0 1.0 3.0 0.00 0.00 0.00 96 1020.8
20260830094555 72 360 0.0 3.0 0.00 0.00 0.00 96 1020.8
20260830093051 72 0 0.0 2.0 0.00 0.00 0.00 96 1020.7
20260830091601 72 360 0.0 3.0 0.00 0.00 0.00 96 1020.7
20260830090059 73 0 0.0 2.0 0.00 0.00 0.00 96 1020.8
20260830084600 73 360 0.0 3.0 0.00 0.00 0.00 96 1021.0
20260830083059 72 0 0.0 1.0 0.00 0.00 0.00 96 1021.1
20260830081551 73 360 0.0 2.0 0.00 0.00 0.00 96 1021.1
20260830080108 72 0 0.0 0.0 0.00 0.00 0.00 96 1021.1
20260830074607 72 0 0.0 0.0 0.00 0.00 0.00 95 1020.9
20260830073105 73 0 0.0 0.0 0.00 0.00 0.00 96 1020.9
20260830071602 73 0 0.0 0.0 0.00 0.00 0.00 95 1021.0
20260830064610 73 0 0.0 0.0 0.00 0.00 0.00 95 1021.1
20260830063102 73 0 0.0 0.0 0.00 0.00 0.00 94 1020.9
20260830061627 73 0 0.0 0.0 0.00 0.00 0.00 94 1021.1
20260830060055 73 0 0.0 0.0 0.00 0.00 0.00 94 1021.3
20260830054550 74 0 0.0 0.0 0.00 0.00 0.00 93 1021.4
20260830053101 74 0 0.0 1.0 0.00 0.00 0.00 93 1021.5
20260830051608 75 0 0.0 2.0 0.00 0.00 0.00 92 1021.6